Meath Environmental Platform

Observations for Trim Market St

Time AQI Temp °C Hum % Pres Pa CO μg/m³ H₂S μg/m³ NO μg/m³ NO₂ μg/m³ O₃ μg/m³ SO₂ μg/m³ PM1 μg/m³ PM2.5 μg/m³ PM10 μg/m³
Saturday 11 July 2026
22:22 1 22.1 67 56,128 0 0 0 7.47 15.7 0 4.99 6.62 10.11
22:16 1 22.2 66 56,317 0 0 0 10.51 22.3 0 4.28 6.17 10.12
22:12 1 22.4 66 56,439 0 0 0 3.7 10.37 0 4.99 6.18 8.83
22:11 1 22.4 66 56,469 0 0 0 7.41 19.16 0 4.28 7.17 10.78
22:08 1 22.5 66 56,628 0 0 0 8.04 17.81 0 4.99 9.66 13.41
22:05 1 22.6 65 56,746 0 0 0 3.37 12.18 0 5.7 10.68 15.4
22:04 1 22.6 65 56,788 0 0 0 12.58 25.19 0 5.7 7.73 12.12
22:02 1 22.7 65 56,887 0 0 0 10.68 24.69 0 5.7 9.72 14.11
22:00 1 22.7 65 56,969 0 0 0 11.2 14.08 0 4.99 6.76 9.51
21:59 1 22.8 64 57,010 0 0 0 6.39 14.97 0 4.99 6.78 10.17
21:57 1 22.9 64 57,089 0 0 0 8.38 22.41 0 5.7 7.28 10.17
21:56 1 22.9 64 57,122 0 0 0 11.88 19.03 0 5.7 7.77 12.81
21:55 1 23 64 57,155 0 0 0 10.86 19.12 0 7.13 9.26 12.82
21:54 1 23 64 57,182 0 0 0 7.87 20.88 0 4.28 6.79 9.51
21:52 1 23.1 64 57,236 0 0 0 7.58 11.93 0 7.13 8.29 11.51
21:46 1 23.3 63 57,346 0 0 0 9.58 22.23 0 5.7 7.33 10.86
21:40 1 23.5 63 57,450 0 0 0 5.87 8.54 0 5.7 9.34 14.22
21:38 1 23.6 63 57,470 0 0 0 10.47 17.34 0 6.41 7.87 11.55
21:37 1 23.6 63 57,487 0 0 0 5.98 19.82 0 6.41 10.35 14.24
21:35 1 23.7 62 57,499 0 0 0 6.88 21.14 0 7.13 9.87 14.25